Tiempo cada hora Czuszow

Hoy, 1 Diciembre, Martes

Tiempo Temperatura Precipitaciones Viento Presión Humedad
00:00 -3°C° 0 mm 2 mps 743 mmHg 79%
01:00 -3°C° 0 mm 2 mps 742 mmHg 77%
02:00 -4°C° 0 mm 2 mps 742 mmHg 77%
03:00 -4°C° 0 mm 2 mps 742 mmHg 76%
04:00 -4°C° 0 mm 2 mps 742 mmHg 75%
05:00 -2°C° 0 mm 1 mps 742 mmHg 76%
06:00 -2°C° 0 mm 1 mps 742 mmHg 77%
07:00 -2°C° 0 mm 1 mps 742 mmHg 78%
08:00 -3°C° 0 mm 2 mps 742 mmHg 73%
09:00 -2°C° 0 mm 2 mps 742 mmHg 69%
10:00 -2°C° 0 mm 2 mps 742 mmHg 64%
11:00 -1°C° 0 mm 2 mps 742 mmHg 62%
12:00 +1°C° 0 mm 2 mps 742 mmHg 59%
13:00 +1°C° 0 mm 2 mps 741 mmHg 57%
14:00 -1°C° 0 mm 2 mps 741 mmHg 63%
15:00 0°C° 0 mm 1 mps 741 mmHg 69%
16:00 -1°C° 0 mm 1 mps 741 mmHg 74%
17:00 -1°C° 0 mm 1 mps 741 mmHg 77%
18:00 -1°C° 0 mm 1 mps 742 mmHg 79%
19:00 -4°C° 0 mm 2 mps 742 mmHg 81%
20:00 -2°C° 0 mm 1 mps 742 mmHg 82%
21:00 -2°C° 0 mm 1 mps 742 mmHg 83%
22:00 -2°C° 0 mm 1 mps 742 mmHg 84%
23:00 -2°C° 0 mm 1 mps 742 mmHg 84%

Mañana, 2 Diciembre, Miércoles

Tiempo Temperatura Precipitaciones Viento Presión Humedad
00:00 -2°C° 0 mm 1 mps 743 mmHg 84%
01:00 -2°C° 0 mm 1 mps 743 mmHg 84%
02:00 -3°C° 0 mm 1 mps 743 mmHg 84%
03:00 -3°C° 0 mm 1 mps 742 mmHg 85%
04:00 -3°C° 0 mm 1 mps 742 mmHg 85%
05:00 -3°C° 0 mm 1 mps 742 mmHg 85%
06:00 -5°C° 0 mm 2 mps 742 mmHg 85%
07:00 -5°C° 0 mm 2 mps 742 mmHg 85%
08:00 -5°C° 0 mm 2 mps 742 mmHg 79%
09:00 -4°C° 0 mm 2 mps 742 mmHg 73%
10:00 -4°C° 0 mm 3 mps 742 mmHg 67%
11:00 -2°C° 0 mm 3 mps 742 mmHg 64%
12:00 -2°C° 0 mm 3 mps 741 mmHg 60%
13:00 -1°C° 0 mm 3 mps 741 mmHg 57%
14:00 -2°C° 0 mm 3 mps 741 mmHg 62%
15:00 -3°C° 0 mm 2 mps 740 mmHg 67%
16:00 -4°C° 0 mm 2 mps 740 mmHg 72%
17:00 -4°C° 0 mm 2 mps 740 mmHg 75%
18:00 -5°C° 0 mm 3 mps 740 mmHg 78%
19:00 -5°C° 0 mm 3 mps 739 mmHg 81%
20:00 -4°C° 0 mm 2 mps 739 mmHg 80%
21:00 -5°C° 0 mm 2 mps 739 mmHg 79%
22:00 -5°C° 0 mm 2 mps 739 mmHg 78%
23:00 -5°C° 0 mm 2 mps 739 mmHg 75%

Pasado mañana, 3 Diciembre, Jueves

Tiempo Temperatura Precipitaciones Viento Presión Humedad
00:00 -5°C° 0 mm 2 mps 738 mmHg 71%
01:00 -4°C° 0 mm 2 mps 738 mmHg 68%
02:00 -5°C° 0 mm 2 mps 737 mmHg 66%
03:00 -5°C° 0 mm 2 mps 737 mmHg 65%
04:00 -5°C° 0 mm 2 mps 737 mmHg 63%
05:00 -5°C° 0 mm 2 mps 736 mmHg 63%
06:00 -5°C° 0 mm 2 mps 736 mmHg 62%
07:00 -5°C° 0 mm 2 mps 736 mmHg 62%
08:00 -4°C° 0 mm 2 mps 736 mmHg 58%
09:00 -3°C° 0 mm 2 mps 735 mmHg 54%
10:00 -2°C° 0 mm 3 mps 735 mmHg 50%
11:00 -1°C° 0 mm 3 mps 735 mmHg 48%
12:00 0°C° 0 mm 3 mps 734 mmHg 47%
13:00 +1°C° 0 mm 3 mps 734 mmHg 45%
14:00 +1°C° 0 mm 3 mps 733 mmHg 48%
15:00 0°C° 0 mm 3 mps 733 mmHg 52%
16:00 0°C° 0 mm 3 mps 732 mmHg 55%
17:00 0°C° 0 mm 3 mps 732 mmHg 56%
18:00 0°C° 0 mm 3 mps 732 mmHg 58%
19:00 0°C° 0 mm 3 mps 732 mmHg 59%
20:00 0°C° 0 mm 3 mps 731 mmHg 58%
21:00 0°C° 0 mm 3 mps 731 mmHg 58%
22:00 0°C° 0 mm 4 mps 731 mmHg 57%
23:00 0°C° 0 mm 4 mps 730 mmHg 57%

4 Diciembre, Viernes

Tiempo Temperatura Precipitaciones Viento Presión Humedad
00:00 0°C° 0 mm 4 mps 730 mmHg 57%
01:00 0°C° 0 mm 4 mps 730 mmHg 57%
02:00 0°C° 0 mm 4 mps 729 mmHg 57%
03:00 0°C° 0 mm 5 mps 729 mmHg 57%
04:00 0°C° 0 mm 5 mps 728 mmHg 56%
05:00 0°C° 0 mm 5 mps 728 mmHg 57%
06:00 0°C° 0 mm 5 mps 728 mmHg 58%
07:00 0°C° 0 mm 5 mps 727 mmHg 59%
08:00 +1°C° 0 mm 5 mps 727 mmHg 59%
09:00 +1°C° 0 mm 5 mps 727 mmHg 60%
10:00 +2°C° 0 mm 5 mps 727 mmHg 60%
11:00 +3°C° 0 mm 6 mps 727 mmHg 62%
12:00 +3°C° 0 mm 6 mps 727 mmHg 63%
13:00 +4°C° 0 mm 6 mps 726 mmHg 64%
14:00 +4°C° 0 mm 7 mps 726 mmHg 69%
15:00 +3°C° 0 mm 7 mps 726 mmHg 74%
16:00 +3°C° 0 mm 7 mps 726 mmHg 79%
17:00 +2°C° 0 mm 6 mps 726 mmHg 81%
18:00 +2°C° 0 mm 6 mps 727 mmHg 82%
19:00 +2°C° 0 mm 5 mps 727 mmHg 84%
20:00 +2°C° 0 mm 5 mps 727 mmHg 83%
21:00 +2°C° 0 mm 5 mps 727 mmHg 82%
22:00 +2°C° 0 mm 5 mps 728 mmHg 82%
23:00 +1°C° 0 mm 5 mps 728 mmHg 83%

5 Diciembre, Sábado

Tiempo Temperatura Precipitaciones Viento Presión Humedad
00:00 +1°C° 0 mm 5 mps 728 mmHg 83%
01:00 +1°C° 0 mm 5 mps 728 mmHg 84%
02:00 +1°C° 0 mm 5 mps 728 mmHg 84%
03:00 +1°C° 0 mm 5 mps 728 mmHg 84%
04:00 +2°C° 0 mm 5 mps 728 mmHg 84%
05:00 +2°C° 0 mm 5 mps 728 mmHg 84%
06:00 +2°C° 0 mm 5 mps 728 mmHg 84%
07:00 +2°C° 0 mm 6 mps 728 mmHg 84%
08:00 +3°C° 0 mm 6 mps 728 mmHg 80%
09:00 +4°C° 0 mm 6 mps 729 mmHg 77%
10:00 +4°C° 0 mm 6 mps 729 mmHg 74%
11:00 +5°C° 0 mm 6 mps 729 mmHg 71%
12:00 +7°C° 0 mm 5 mps 729 mmHg 69%
13:00 +8°C° 0 mm 5 mps 729 mmHg 66%
14:00 +7°C° 0 mm 5 mps 729 mmHg 68%
15:00 +7°C° 0 mm 5 mps 729 mmHg 70%
16:00 +6°C° 0 mm 5 mps 729 mmHg 71%
17:00 +6°C° 0 mm 5 mps 729 mmHg 72%
18:00 +6°C° 0 mm 5 mps 729 mmHg 73%
19:00 +6°C° 0 mm 5 mps 729 mmHg 74%
20:00 +6°C° 0 mm 5 mps 729 mmHg 74%
21:00 +6°C° 0 mm 5 mps 729 mmHg 73%
22:00 +6°C° 0 mm 5 mps 729 mmHg 73%
23:00 +6°C° 0 mm 5 mps 729 mmHg 73%

6 Diciembre, Domingo

Tiempo Temperatura Precipitaciones Viento Presión Humedad
00:00 +6°C° 0 mm 5 mps 728 mmHg 73%
01:00 +5°C° 0 mm 6 mps 728 mmHg 72%
02:00 +5°C° 0 mm 6 mps 728 mmHg 72%
03:00 +5°C° 0 mm 7 mps 728 mmHg 72%
04:00 +5°C° 0 mm 7 mps 728 mmHg 72%
05:00 +5°C° 0 mm 7 mps 727 mmHg 73%
06:00 +5°C° 0 mm 7 mps 727 mmHg 75%
07:00 +5°C° 0 mm 7 mps 727 mmHg 76%
08:00 +6°C° 0 mm 7 mps 727 mmHg 74%
09:00 +8°C° 0 mm 7 mps 727 mmHg 71%
10:00 +9°C° 0 mm 8 mps 727 mmHg 69%
11:00 +9°C° 0 mm 8 mps 727 mmHg 67%
12:00 +10°C° 0 mm 8 mps 727 mmHg 65%
13:00 +10°C° 0 mm 8 mps 726 mmHg 63%
14:00 +10°C° 0 mm 8 mps 727 mmHg 67%
15:00 +9°C° 0 mm 7 mps 727 mmHg 72%
16:00 +9°C° 0 mm 7 mps 727 mmHg 77%
17:00 +8°C° 0 mm 6 mps 728 mmHg 79%
18:00 +8°C° 0 mm 6 mps 728 mmHg 81%
19:00 +8°C° 0 mm 5 mps 729 mmHg 83%
20:00 +7°C° 0 mm 4 mps 729 mmHg 85%
21:00 +8°C° 0 mm 3 mps 730 mmHg 86%
22:00 +8°C° 0 mm 3 mps 730 mmHg 88%
23:00 +7°C° 0 mm 2 mps 730 mmHg 88%
Mostrar más

Necesitamos Su Consentimiento

Meteoprog y nuestros Proveedores de Servicios pueden almacenar y acceder a sus datos personales como cookies, identificadores de dispositivo u otras tecnologías similares de su dispositivo y procesar dichos datos para personalizar contenido y anuncios, además de ofrecer funciones de redes sociales y analizar el tráfico.

  • Almacenar y/o acceder a información en su dispositivo

    Se puede almacenar o acceder a cookies, identificadores de dispositivo u otra información de su dispositivo para los fines anteriormente indicados.

  • Anuncios y contenido personalizados, medición de anuncios y contenido, percepciones del público, y desarrollo de productos

    Los anuncios y el contenido pueden personalizarse en base a su perfil. Se pueden añadir más datos para personalizar mejor los anuncios y contenidos. Se puede medir el rendimiento de los anuncios y contenidos. Se puede obtener la percepción sobre el público que ha visto los anuncios y contenidos. Dichos datos pueden usarse para desarrollar o mejorar la experiencia del usuario, sistemas y software.

Al hacer clic en ‘Estoy De Acuerdo’ usted permitirá el uso de las cookies, identificadores de dispositivo, balizas web u otras tecnologías similares indicadas. Su configuración puede cambiarse desde el navegador de su dispositivo.

Para ciertos fines, los intereses legítimos pueden ser considerados por encima del consentimiento. Puede leer más sobre ello en nuestra Política de Privacidad y Cookies.